QPF
0.00 0.00 0.00 0.01 0.03 0.00 0.00 0.00 0.00 0.00 0.00 0.01 0.00 0.00 0.00 0.02 0.01 0.03 0.03 0.02 0.00 0.04 0.07 0.04 0.04 0.01 0.00 0.00 0.00 0.02 0.02 0.00 0.00 0.01 0.01 0.00 0.00 0.00 0.00 0.02 0.01 0.01 0.00
0.00 0.00 0.00 0.02 0.00 0.00 0.00 0.00 0.01 0.00 0.01 0.04 0.01 0.00 0.01 0.01 0.03 0.06 0.01 0.01 0.02 0.02 0.00 0.02 0.02 0.00 0.01 0.00 0.00 0.01 0.02 0.01 0.02 0.01 0.00 0.00 0.00 0.01 0.00 0.00 0.01 0.00 0.00
0.00 0.00 0.00 0.03 0.00 0.00 0.00 0.06 0.04 0.03 0.02 0.10 0.16 0.03 0.02 0.05 0.15 0.02 0.01 0.03 0.02 0.00 0.00 0.01 0.00 0.02 0.01 0.00 0.00 0.00 0.03 0.05 0.03 0.01 0.01 0.00 0.00 0.01 0.00 0.00 0.00 0.00 0.00
0.00 0.00 0.00 0.02 0.01 0.00 0.00 0.02 0.02 0.00 0.06 0.13 0.05 0.13 0.06 0.09 0.07 0.03 0.04 0.03 0.00 0.01 0.02 0.02 0.00 0.01 0.01 0.00 0.01 0.00 0.00 0.02 0.01 0.01 0.00 0.00 0.00 0.03 0.02 0.02 0.01 0.00 0.00
0.00 0.00 0.00 0.00 0.00 0.00 0.00 0.05 0.03 0.01 0.05 0.08 0.11 0.10 0.05 0.04 0.04 0.02 0.01 0.01 0.03 0.01 0.01 0.01 0.00 0.00 0.00 0.00 0.00 0.00 0.00 0.00 0.00 0.01 0.00 0.00 0.00 0.02 0.03 0.02 0.01 0.00 0.02
0.00 0.00 0.00 0.01 0.01 0.01 0.02 0.03 0.02 0.01 0.04 0.05 0.01 0.05 0.04 0.02 0.03 0.01 0.00 0.03 0.06 0.01 0.00 0.00 0.01 0.01 0.00 0.00 0.00 0.00 0.00 0.00 0.00 0.00 0.00 0.00 0.00 0.00 0.00 0.00 0.00 0.03 0.01
0.00 0.00 0.00 0.04 0.09 0.10 0.08 0.00 0.00 0.01 0.03 0.06 0.05 0.03 0.01 0.01 0.02 0.03 0.04 0.03 0.02 0.01 0.01 0.01 0.03 0.04 0.05 0.04 0.02 0.00 0.00 0.00 0.00 0.00 0.00 0.00 0.00 0.03 0.02 0.00 0.00 0.01 0.00
0.00 0.00 0.00 0.00 0.07 0.06 0.00 0.02 0.02 0.04 0.04 0.09 0.08 0.01 0.00 0.02 0.05 0.04 0.03 0.01 0.00 0.02 0.01 0.00 0.04 0.11 0.12 0.06 0.06 0.00 0.00 0.00 0.00 0.00 0.00 0.01 0.01 0.03 0.00 0.00 0.00 0.00 0.00
0.00 0.00 0.00 0.01 0.03 0.04 0.00 0.03 0.07 0.03 0.05 0.05 0.00 0.01 0.01 0.05 0.02 0.02 0.02 0.04 0.01 0.01 0.02 0.02 0.06 0.05 0.10 0.10 0.06 0.00 0.00 0.00 0.00 0.00 0.00 0.01 0.01 0.01 0.02 0.00 0.00 0.00 0.00
0.00 0.00 0.00 0.03 0.05 0.03 0.00 0.02 0.03 0.00 0.01 0.00 0.00 0.00 0.01 0.05 0.08 0.09 0.05 0.07 0.01 0.00 0.00 0.00 0.01 0.01 0.05 0.06 0.05 0.08 0.01 0.00 0.00 0.00 0.00 0.00 0.00 0.02 0.01 0.05 0.02 0.01 0.06
0.00 0.00 0.00 0.00 0.00 0.00 0.00 0.00 0.02 0.00 0.00 0.00 0.00 0.01 0.02 0.10 0.11 0.02 0.04 0.05 0.03 0.02 0.00 0.00 0.00 0.00 0.06 0.02 0.04 0.07 0.06 0.00 0.00 0.00 0.00 0.00 0.00 0.01 0.00 0.02 0.03 0.02 0.04
0.00 0.00 0.00 0.00 0.00 0.00 0.00 0.00 0.03 0.02 0.01 0.00 0.03 0.01 0.00 0.02 0.02 0.00 0.00 0.00 0.00 0.00 0.00 0.00 0.00 0.00 0.02 0.00 0.01 0.01 0.00 0.00 0.00 0.00 0.00 0.00 0.05 0.03 0.00 0.00 0.00 0.02 0.01
0.00 0.00 0.00 0.00 0.00 0.00 0.00 0.00 0.00 0.00 0.00 0.00 0.00 0.00 0.00 0.00 0.00 0.00 0.00 0.04 0.03 0.00 0.00 0.00 0.00 0.00 0.00 0.00 0.00 0.00 0.00 0.00 0.02 0.01 0.01 0.04 0.06 0.05 0.04 0.00 0.00 0.00 0.00
0.00 0.00 0.00 0.00 0.00 0.00 0.00 0.00 0.00 0.00 0.00 0.00 0.00 0.00 0.00 0.00 0.00 0.00 0.00 0.00 0.01 0.00 0.00 0.00 0.00 0.00 0.01 0.01 0.00 0.00 0.00 0.00 0.03 0.05 0.01 0.06 0.04 0.14 0.07 0.03 0.00 0.01 0.00
0.00 0.00 0.00 0.00 0.00 0.00 0.00 0.00 0.00 0.00 0.00 0.00 0.00 0.00 0.00 0.00 0.00 0.00 0.00 0.00 0.00 0.00 0.00 0.00 0.01 0.08 0.11 0.12 0.00 0.00 0.00 0.00 0.11 0.09 0.04 0.02 0.11 0.09 0.09 0.06 0.05 0.02 0.00
0.00 0.00 0.00 0.00 0.00 0.00 0.00 0.00 0.00 0.00 0.00 0.00 0.00 0.01 0.19 0.05 0.00 0.00 0.00 0.00 0.00 0.00 0.00 0.02 0.05 0.04 0.11 0.12 0.04 0.01 0.00 0.00 0.05 0.07 0.05 0.00 0.03 0.05 0.03 0.06 0.04 0.04 0.01
0.00 0.00 0.00 0.00 0.00 0.00 0.00 0.00 0.00 0.00 0.00 0.00 0.00 0.00 0.06 0.07 0.10 0.04 0.00 0.00 0.01 0.00 0.00 0.01 0.00 0.00 0.01 0.00 0.02 0.07 0.00 0.00 0.00 0.00 0.00 0.01 0.02 0.01 0.01 0.01 0.00 0.00 0.02
0.00 0.00 0.00 0.00 0.00 0.00 0.00 0.00 0.00 0.00 0.00 0.00 0.00 0.00 0.00 0.00 0.02 0.06 0.00 0.00 0.00 0.00 0.02 0.09 0.14 0.12 0.06 0.01 0.00 0.00 0.00 0.00 0.02 0.00 0.00 0.00 0.00 0.00 0.00 0.00 0.01 0.01 0.00
0.00 0.00 0.00 0.00 0.00 0.00 0.00 0.00 0.00 0.00 0.00 0.00 0.00 0.00 0.00 0.00 0.00 0.32 0.12 0.00 0.03 0.00 0.00 0.00 0.03 0.16 0.29 0.18 0.03 0.01 0.00 0.07 0.14 0.03 0.00 0.00 0.00 0.00 0.00 0.00 0.05 0.05 0.02
0.00 0.00 0.00 0.00 0.00 0.00 0.00 0.00 0.00 0.00 0.00 0.00 0.00 0.00 0.00 0.00 0.00 0.01 0.00 0.08 0.18 0.07 0.14 0.05 0.12 0.10 0.21 0.19 0.03 0.00 0.00 0.00 0.02 0.05 0.01 0.00 0.00 0.00 0.00 0.00 0.01 0.04 0.04
0.00 0.00 0.00 0.00 0.00 0.00 0.00 0.00 0.00 0.00 0.00 0.00 0.00 0.00 0.00 0.00 0.00 0.00 0.00 0.07 0.19 0.10 0.10 0.05 0.07 0.17 0.09 0.04 0.03 0.01 0.00 0.00 0.00 0.00 0.00 0.00 0.00 0.00 0.00 0.00 0.00 0.00 0.02
0.00 0.00 0.00 0.00 0.00 0.00 0.00 0.00 0.00 0.00 0.00 0.00 0.00 0.00 0.00 0.06 0.03 0.00 0.01 0.04 0.21 0.03 0.07 0.11 0.07 0.05 0.03 0.06 0.07 0.04 0.02 0.03 0.01 0.00 0.00 0.00 0.00 0.00 0.00 0.00 0.00 0.00 0.00
0.00 0.00 0.00 0.00 0.00 0.00 0.00 0.00 0.00 0.00 0.00 0.00 0.00 0.00 0.00 0.03 0.00 0.00 0.00 0.07 0.10 0.07 0.01 0.08 0.07 0.05 0.03 0.01 0.08 0.05 0.02 0.07 0.03 0.00 0.00 0.00 0.00 0.00 0.02 0.00 0.00 0.00 0.00
0.00 0.00 0.00 0.00 0.00 0.00 0.00 0.00 0.00 0.00 0.00 0.00 0.00 0.00 0.00 0.00 0.00 0.00 0.00 0.00 0.04 0.04 0.00 0.01 0.02 0.03 0.01 0.00 0.01 0.01 0.04 0.02 0.02 0.01 0.00 0.00 0.00 0.00 0.05 0.04 0.00 0.00 0.08
0.00 0.00 0.00 0.00 0.00 0.00 0.00 0.00 0.00 0.00 0.00 0.00 0.00 0.00 0.00 0.00 0.00 0.00 0.00 0.00 0.00 0.00 0.02 0.03 0.19 0.06 0.08 0.04 0.05 0.05 0.05 0.05 0.03 0.03 0.01 0.00 0.00 0.00 0.00 0.00 0.00 0.00 0.00
0.00 0.00 0.00 0.00 0.00 0.00 0.00 0.00 0.00 0.00 0.00 0.00 0.00 0.00 0.00 0.00 0.00 0.00 0.00 0.00 0.00 0.00 0.07 0.08 0.12 0.20 0.22 0.10 0.11 0.14 0.11 0.09 0.07 0.04 0.02 0.00 0.01 0.00 0.00 0.00 0.00 0.00 0.00
MSLP
1016.26 1017.13 1018.17 1018.31 1018.36 1018.43 1018.46 1018.46 1018.48 1018.55 1018.57 1018.63 1018.80 1018.93 1019.05 1019.21 1019.15 1019.24 1019.20 1019.23 1019.25 1019.24 1019.33 1019.27 1019.38 1019.37 1019.45 1019.58 1019.65 1019.69 1019.77 1019.84 1019.87 1019.92 1019.96 1020.04 1020.18 1020.22 1020.21 1020.16 1019.97 1019.91 1020.68
1015.92 1016.97 1018.26 1018.53 1018.63 1018.69 1018.75 1018.72 1018.76 1018.81 1018.89 1019.00 1019.04 1019.13 1019.29 1019.40 1019.45 1019.54 1019.43 1019.58 1019.56 1019.53 1019.53 1019.69 1019.70 1019.67 1019.73 1019.84 1020.00 1020.08 1020.07 1020.13 1020.19 1020.19 1020.12 1020.29 1020.46 1020.55 1020.49 1020.30 1019.98 1020.61 1020.88
1016.07 1017.13 1018.10 1018.70 1018.83 1018.94 1018.95 1018.88 1018.96 1019.08 1019.13 1019.23 1019.40 1019.29 1019.42 1019.62 1019.70 1019.61 1019.70 1019.85 1019.80 1019.78 1019.88 1019.84 1019.97 1020.07 1020.08 1020.15 1020.31 1020.37 1020.46 1020.47 1020.32 1020.19 1019.96 1019.77 1020.22 1020.82 1020.82 1020.79 1020.86 1021.02 1021.13
1016.08 1016.60 1017.60 1018.93 1019.01 1019.16 1019.17 1019.21 1019.16 1019.20 1019.27 1019.51 1019.55 1019.59 1019.73 1019.82 1019.80 1019.86 1019.99 1020.00 1019.99 1020.13 1020.15 1020.10 1020.19 1020.26 1020.36 1020.47 1020.53 1020.61 1020.68 1020.74 1020.54 1020.18 1019.51 1019.11 1019.88 1021.08 1021.08 1021.19 1021.24 1021.29 1021.43
1016.21 1016.41 1018.00 1018.97 1019.12 1019.29 1019.38 1019.44 1019.33 1019.40 1019.52 1019.60 1019.67 1019.88 1019.85 1019.92 1019.92 1019.98 1020.15 1020.25 1020.27 1020.33 1020.31 1020.36 1020.42 1020.53 1020.62 1020.68 1020.76 1020.82 1020.92 1020.95 1020.75 1020.04 1019.37 1019.49 1019.72 1021.23 1021.38 1021.39 1021.54 1021.57 1021.50
1016.39 1016.47 1018.66 1019.08 1019.28 1019.37 1019.51 1019.48 1019.46 1019.52 1019.59 1019.75 1019.79 1019.97 1020.02 1020.03 1020.17 1020.23 1020.28 1020.59 1020.51 1020.52 1020.55 1020.57 1020.58 1020.78 1020.89 1021.02 1021.02 1020.99 1021.13 1021.17 1020.82 1020.10 1020.32 1020.41 1019.91 1021.42 1021.53 1021.55 1021.54 1021.85 1021.83
1016.36 1017.05 1018.36 1019.15 1019.31 1019.44 1019.55 1019.58 1019.63 1019.67 1019.80 1019.84 1019.89 1020.05 1020.13 1020.22 1020.29 1020.47 1020.49 1020.69 1020.68 1020.70 1020.79 1020.86 1020.94 1020.99 1021.10 1021.06 1021.19 1021.19 1021.29 1021.13 1020.22 1020.23 1020.17 1020.36 1020.82 1021.67 1021.79 1021.86 1021.91 1021.95 1022.07
1016.61 1017.20 1018.40 1019.28 1019.40 1019.47 1019.61 1019.73 1019.80 1019.82 1019.97 1020.06 1020.22 1020.20 1020.28 1020.55 1020.60 1020.74 1020.79 1020.78 1020.83 1020.92 1020.99 1021.09 1021.14 1021.24 1021.01 1021.13 1021.32 1021.36 1021.39 1021.09 1020.77 1020.53 1020.23 1020.68 1021.70 1021.85 1022.01 1022.12 1022.17 1022.12 1022.29
1017.25 1017.88 1018.39 1018.72 1019.28 1019.64 1019.78 1019.88 1019.98 1020.09 1020.22 1020.24 1020.33 1020.42 1020.58 1020.71 1020.78 1020.85 1020.92 1021.01 1020.99 1021.10 1021.17 1021.34 1021.36 1021.33 1021.16 1021.27 1021.50 1021.64 1021.60 1021.37 1020.80 1021.05 1020.48 1020.68 1021.88 1021.90 1022.03 1022.17 1022.27 1022.33 1022.40
1017.45 1017.70 1018.03 1018.79 1019.10 1018.98 1019.36 1020.03 1020.14 1020.19 1020.29 1020.38 1020.44 1020.52 1020.70 1020.74 1020.95 1021.00 1020.95 1021.17 1021.08 1021.13 1021.23 1021.32 1021.37 1021.46 1021.46 1021.54 1021.57 1021.62 1021.68 1021.44 1020.87 1020.76 1020.68 1021.25 1021.86 1021.90 1022.08 1022.20 1022.29 1022.38 1022.53
1017.48 1017.70 1017.78 1018.08 1018.63 1019.25 1019.36 1019.83 1020.11 1020.14 1020.25 1020.29 1020.45 1020.64 1020.60 1020.58 1020.72 1020.22 1021.12 1021.28 1021.28 1021.26 1021.36 1021.43 1021.39 1021.47 1021.44 1021.46 1021.53 1021.57 1021.60 1020.83 1020.97 1020.47 1020.31 1021.69 1022.03 1022.05 1022.16 1022.21 1022.35 1022.42 1022.51
1017.14 1017.49 1017.69 1017.92 1018.19 1018.77 1019.01 1019.47 1019.52 1019.32 1019.43 1019.39 1019.83 1020.14 1019.80 1020.51 1020.47 1020.25 1020.74 1021.10 1021.17 1021.28 1021.33 1021.46 1021.55 1021.61 1021.18 1020.88 1021.47 1021.66 1021.30 1021.14 1021.11 1020.93 1020.86 1022.04 1022.41 1022.16 1022.17 1022.21 1022.27 1022.27 1022.39
1017.19 1017.43 1017.95 1018.31 1018.67 1018.46 1018.81 1019.13 1018.92 1018.98 1019.14 1019.61 1019.96 1019.80 1019.80 1019.91 1019.88 1019.78 1019.94 1021.05 1020.62 1021.06 1020.72 1021.26 1021.28 1021.31 1021.21 1020.80 1021.28 1021.45 1021.04 1021.31 1021.65 1021.85 1021.90 1022.16 1022.24 1022.32 1022.31 1022.12 1022.26 1022.20 1022.29
1016.85 1017.20 1017.51 1017.84 1018.54 1018.40 1018.60 1018.71 1018.89 1019.02 1019.12 1019.06 1019.46 1020.01 1019.99 1019.63 1020.09 1020.25 1019.89 1020.08 1020.29 1020.36 1020.78 1020.54 1020.26 1020.77 1021.50 1021.74 1021.78 1021.89 1021.32 1020.91 1021.07 1022.09 1022.48 1022.43 1022.27 1022.28 1022.35 1022.27 1022.23 1022.24 1022.30
1016.48 1016.84 1017.16 1017.78 1018.57 1018.65 1018.95 1018.66 1018.71 1018.96 1019.12 1019.00 1019.59 1019.84 1019.76 1019.70 1019.87 1019.99 1020.09 1019.87 1019.94 1019.92 1019.89 1020.80 1020.60 1020.91 1021.41 1021.58 1021.72 1021.60 1021.82 1021.27 1021.30 1021.87 1022.22 1022.52 1022.44 1022.27 1022.23 1022.22 1022.23 1022.31 1022.20
1016.17 1016.51 1017.04 1017.66 1018.30 1018.47 1018.62 1018.94 1018.80 1018.83 1018.87 1019.11 1019.41 1019.53 1020.36 1019.91 1019.95 1019.77 1019.81 1019.78 1019.81 1019.77 1019.68 1019.91 1021.08 1021.26 1021.37 1021.37 1021.39 1021.34 1021.53 1021.14 1021.23 1021.41 1021.73 1022.05 1022.08 1022.24 1022.14 1022.13 1022.18 1022.17 1022.15
1015.94 1016.35 1016.79 1017.37 1017.69 1018.37 1018.73 1018.99 1018.82 1018.74 1018.53 1018.76 1019.07 1019.62 1019.94 1020.17 1020.36 1020.09 1019.69 1019.71 1019.53 1019.65 1020.04 1019.92 1020.24 1021.17 1020.59 1021.30 1021.25 1021.23 1021.10 1020.83 1021.04 1020.83 1021.05 1021.33 1021.71 1021.75 1021.79 1021.98 1022.03 1021.96 1021.97
1015.64 1016.30 1016.90 1017.10 1017.29 1017.87 1018.08 1018.63 1018.51 1018.57 1018.38 1018.51 1018.71 1019.03 1019.50 1019.61 1019.81 1019.83 1019.43 1019.26 1019.25 1019.53 1019.35 1020.20 1020.27 1020.41 1020.78 1020.69 1020.87 1020.68 1020.07 1019.39 1019.72 1020.11 1019.95 1020.44 1020.25 1020.63 1021.27 1021.50 1021.65 1021.77 1021.89
1015.72 1016.31 1016.92 1017.29 1017.41 1017.73 1018.20 1018.33 1018.48 1018.45 1018.55 1018.45 1018.59 1018.65 1019.00 1019.26 1019.41 1019.76 1019.62 1019.06 1019.62 1019.23 1018.99 1019.00 1019.07 1019.79 1020.06 1020.08 1020.10 1020.15 1019.44 1018.85 1019.13 1018.84 1019.39 1019.18 1019.67 1020.29 1020.29 1020.73 1021.28 1021.52 1021.64
1015.33 1016.05 1016.69 1017.20 1017.54 1017.89 1017.96 1018.40 1018.20 1018.15 1018.21 1018.46 1018.41 1018.26 1018.62 1018.73 1019.04 1019.27 1018.90 1019.13 1019.57 1019.34 1019.48 1019.41 1019.43 1019.75 1019.85 1019.77 1019.19 1018.72 1018.66 1018.54 1017.83 1018.29 1018.10 1019.04 1019.41 1019.54 1020.24 1020.28 1020.72 1021.23 1021.31
1014.84 1015.55 1016.20 1016.86 1017.33 1017.78 1017.94 1017.98 1017.99 1017.90 1017.99 1018.03 1017.95 1018.33 1018.61 1018.60 1018.71 1018.91 1018.62 1018.58 1019.14 1019.24 1019.36 1019.36 1019.26 1019.56 1019.47 1019.16 1018.91 1017.98 1017.30 1017.07 1017.33 1017.41 1017.21 1017.66 1018.51 1018.65 1019.30 1019.62 1020.13 1020.45 1020.58
1014.01 1014.87 1015.63 1016.21 1016.87 1017.38 1017.47 1017.66 1017.61 1017.65 1017.53 1017.43 1017.43 1017.76 1018.16 1018.45 1018.50 1018.54 1018.44 1018.36 1018.74 1018.84 1019.04 1019.17 1019.21 1019.09 1018.72 1018.74 1019.01 1018.37 1017.33 1016.98 1017.09 1016.39 1017.16 1017.72 1017.62 1017.86 1017.88 1018.89 1018.74 1019.44 1019.62
1012.98 1013.85 1014.76 1015.66 1016.28 1016.93 1017.12 1017.50 1017.69 1017.82 1017.84 1017.66 1017.48 1017.42 1017.24 1017.77 1017.90 1018.05 1018.08 1018.39 1018.43 1018.54 1018.40 1018.79 1018.86 1018.92 1018.50 1017.98 1018.73 1018.86 1017.32 1017.11 1016.63 1016.50 1016.79 1016.88 1017.29 1017.29 1017.24 1018.13 1017.93 1017.95 1018.52
1012.16 1013.06 1014.05 1014.96 1015.63 1016.24 1016.79 1016.90 1017.20 1017.00 1016.75 1016.54 1016.88 1016.78 1016.89 1017.22 1017.37 1017.48 1017.64 1017.74 1017.78 1017.97 1017.90 1018.12 1018.21 1018.44 1018.37 1017.72 1017.59 1017.91 1018.27 1018.03 1017.31 1016.40 1016.06 1016.39 1016.79 1016.79 1016.52 1017.23 1017.27 1017.61 1017.51
1011.43 1012.31 1013.20 1014.16 1014.89 1015.37 1015.97 1016.21 1016.49 1016.73 1016.42 1016.69 1016.64 1016.83 1016.97 1016.82 1016.99 1016.94 1017.11 1017.32 1017.35 1017.21 1017.34 1017.61 1018.00 1018.06 1018.06 1018.22 1017.44 1017.34 1017.76 1017.78 1017.92 1017.87 1016.62 1016.10 1016.25 1016.35 1015.97 1015.99 1015.97 1017.03 1016.88
1010.65 1011.68 1012.39 1013.41 1014.35 1014.98 1015.49 1016.01 1016.18 1016.08 1016.27 1016.28 1016.51 1016.52 1016.39 1016.18 1016.15 1016.30 1016.52 1016.84 1017.07 1016.91 1016.91 1017.20 1017.18 1017.66 1017.68 1017.79 1017.55 1017.68 1017.53 1017.58 1017.41 1017.54 1017.22 1016.90 1016.41 1015.82 1015.45 1015.24 1015.24 1015.91 1015.84
Thickness
5771 5766 5760 5760 5760 5760 5760 5761 5762 5762 5763 5763 5762 5760 5759 5758 5758 5757 5757 5756 5756 5758 5758 5758 5757 5758 5758 5756 5755 5754 5753 5753 5752 5751 5751 5750 5748 5747 5746 5746 5747 5745 5738
5777 5769 5761 5759 5759 5760 5760 5761 5762 5761 5761 5761 5761 5760 5758 5758 5758 5757 5757 5756 5756 5757 5757 5756 5756 5756 5756 5755 5753 5753 5753 5752 5751 5750 5751 5749 5747 5746 5746 5746 5747 5741 5739
5777 5769 5762 5758 5759 5760 5761 5761 5761 5761 5761 5760 5759 5760 5760 5758 5758 5758 5757 5756 5756 5757 5756 5756 5755 5754 5754 5752 5751 5751 5751 5750 5751 5752 5753 5753 5749 5745 5744 5744 5742 5740 5738
5777 5773 5766 5758 5759 5759 5760 5760 5762 5762 5762 5760 5759 5759 5759 5759 5759 5758 5757 5756 5757 5756 5755 5755 5754 5753 5751 5750 5750 5749 5749 5749 5750 5753 5758 5759 5753 5744 5744 5742 5741 5739 5738
5777 5774 5763 5758 5759 5759 5759 5760 5763 5763 5763 5762 5761 5759 5761 5761 5760 5760 5758 5757 5756 5755 5755 5755 5754 5752 5750 5750 5749 5748 5747 5747 5749 5755 5758 5757 5755 5744 5743 5742 5740 5739 5738
5776 5774 5757 5757 5759 5760 5760 5762 5764 5764 5764 5763 5763 5762 5762 5762 5761 5760 5759 5757 5756 5755 5754 5754 5754 5751 5749 5748 5748 5748 5747 5748 5751 5755 5753 5752 5754 5744 5742 5742 5741 5738 5737
5777 5770 5761 5758 5760 5761 5762 5764 5764 5764 5764 5764 5764 5764 5763 5763 5762 5760 5759 5758 5757 5756 5755 5753 5751 5750 5749 5749 5748 5748 5747 5749 5755 5755 5754 5752 5748 5742 5741 5741 5740 5738 5737
5775 5771 5764 5760 5761 5764 5765 5764 5765 5766 5765 5765 5765 5765 5764 5763 5761 5760 5759 5759 5757 5756 5754 5751 5750 5748 5749 5748 5746 5746 5747 5748 5751 5752 5754 5750 5743 5741 5739 5739 5739 5738 5736
5772 5766 5766 5766 5765 5765 5766 5766 5766 5766 5765 5766 5765 5764 5763 5763 5762 5760 5758 5757 5757 5755 5753 5749 5748 5748 5748 5747 5745 5744 5744 5746 5749 5746 5751 5749 5741 5740 5739 5738 5737 5737 5737
5773 5774 5774 5771 5771 5773 5771 5767 5767 5767 5767 5767 5766 5765 5764 5764 5762 5761 5760 5758 5757 5757 5754 5751 5749 5748 5747 5745 5744 5744 5743 5745 5747 5747 5748 5744 5740 5740 5738 5737 5737 5737 5735
5778 5780 5781 5781 5777 5774 5774 5771 5770 5770 5770 5769 5767 5766 5766 5766 5764 5767 5759 5758 5758 5757 5756 5753 5752 5749 5749 5747 5745 5744 5744 5748 5745 5748 5748 5736 5735 5736 5737 5736 5735 5736 5736
5782 5784 5785 5785 5783 5780 5779 5776 5776 5778 5776 5776 5772 5769 5772 5767 5767 5768 5764 5761 5761 5759 5757 5754 5752 5752 5754 5753 5748 5746 5747 5746 5743 5744 5744 5733 5730 5730 5733 5736 5736 5736 5735
5787 5789 5786 5784 5782 5784 5782 5780 5782 5781 5780 5776 5774 5774 5774 5773 5773 5773 5771 5764 5766 5763 5764 5758 5756 5755 5755 5756 5751 5749 5750 5746 5742 5741 5738 5733 5730 5730 5729 5731 5735 5736 5736
5793 5793 5793 5790 5786 5787 5786 5785 5784 5782 5781 5782 5779 5775 5775 5776 5772 5771 5773 5771 5769 5769 5764 5765 5766 5761 5755 5752 5750 5749 5751 5751 5748 5740 5735 5733 5732 5730 5729 5729 5729 5731 5734
5798 5799 5799 5793 5788 5788 5787 5789 5788 5785 5783 5784 5780 5778 5778 5778 5776 5775 5774 5775 5774 5773 5772 5765 5766 5762 5758 5755 5753 5752 5750 5751 5749 5744 5740 5735 5733 5733 5732 5731 5729 5728 5729
5806 5805 5803 5798 5792 5790 5790 5789 5791 5790 5789 5787 5783 5782 5776 5778 5778 5779 5779 5779 5778 5777 5777 5774 5765 5762 5760 5759 5758 5755 5753 5753 5751 5748 5744 5740 5738 5735 5732 5732 5731 5730 5728
5811 5811 5808 5803 5800 5794 5791 5789 5790 5792 5793 5791 5788 5784 5781 5779 5777 5779 5781 5781 5782 5780 5775 5775 5772 5766 5765 5760 5759 5759 5758 5757 5755 5754 5752 5747 5743 5740 5738 5735 5734 5731 5730
5815 5810 5809 5808 5806 5800 5798 5793 5793 5793 5794 5793 5792 5789 5786 5785 5784 5782 5784 5785 5785 5781 5781 5774 5773 5772 5767 5768 5763 5764 5766 5770 5766 5763 5761 5756 5754 5749 5743 5740 5736 5734 5731
5814 5810 5806 5805 5805 5802 5797 5795 5794 5794 5793 5794 5793 5793 5791 5788 5787 5783 5783 5786 5782 5783 5783 5783 5783 5777 5773 5772 5770 5767 5772 5775 5772 5772 5767 5765 5760 5754 5751 5746 5739 5735 5734
5818 5814 5809 5805 5802 5800 5798 5795 5796 5796 5796 5794 5794 5796 5794 5793 5790 5787 5789 5787 5782 5783 5780 5780 5779 5778 5775 5773 5777 5779 5778 5777 5781 5776 5776 5767 5763 5760 5754 5750 5743 5738 5735
5821 5816 5811 5807 5804 5801 5798 5795 5795 5794 5796 5797 5798 5795 5794 5794 5793 5790 5792 5791 5785 5783 5781 5782 5782 5777 5776 5779 5775 5781 5786 5789 5784 5782 5781 5777 5770 5767 5759 5755 5749 5745 5741
5828 5822 5817 5813 5808 5804 5804 5801 5800 5800 5802 5803 5802 5799 5795 5793 5792 5791 5793 5793 5787 5786 5784 5782 5781 5778 5780 5780 5768 5770 5768 5777 5781 5789 5781 5775 5775 5771 5769 5760 5759 5752 5749
5836 5830 5824 5818 5814 5809 5807 5803 5800 5799 5798 5798 5800 5801 5801 5797 5795 5794 5792 5790 5789 5786 5787 5783 5781 5777 5774 5783 5775 5765 5767 5759 5773 5782 5779 5779 5775 5774 5772 5764 5764 5762 5756
5843 5839 5832 5825 5820 5815 5810 5806 5801 5800 5799 5805 5802 5804 5803 5799 5798 5797 5794 5793 5792 5790 5789 5786 5786 5782 5779 5778 5782 5779 5773 5769 5761 5762 5780 5778 5776 5776 5777 5769 5766 5763 5762
5851 5844 5839 5831 5826 5823 5817 5813 5808 5802 5806 5804 5804 5800 5798 5799 5798 5799 5797 5794 5794 5794 5793 5789 5784 5782 5781 5774 5779 5778 5771 5769 5765 5754 5757 5768 5773 5776 5779 5777 5774 5765 5765
5857 5849 5844 5834 5827 5824 5820 5814 5810 5808 5805 5803 5801 5799 5801 5804 5804 5801 5799 5795 5791 5792 5792 5789 5788 5782 5780 5777 5777 5774 5770 5763 5760 5756 5752 5754 5759 5770 5780 5781 5780 5773 5772